FLI471 EKBI-EKVG

Flight info

Callsign FLI471
Flight time N/A
Altitude 32000
Route RERPA DCT UNBUD DCT GUNPA/M072F320 DCT ROBUR
Aircraft A20N/M-SDE2E3FGHIRWXY/LB1

Departure

Time N/A
Airport Billund Airport (EKBI)

Arrival

Time 2026-04-28 18:48
Airport Vágar Airport (EKVG)
Time Latitude Longitude Altitude Speed Heading
2026-04-28 17:41 58.34189 4.83244 32000 ft 461 kts 319°
2026-04-28 17:41 58.39056 4.75315 32001 ft 461 kts 319°
2026-04-28 17:42 58.43943 4.67322 32001 ft 461 kts 319°
2026-04-28 17:42 58.48792 4.59360 32001 ft 461 kts 319°
2026-04-28 17:43 58.53674 4.51314 32001 ft 462 kts 319°
2026-04-28 17:43 58.58515 4.43305 32002 ft 461 kts 319°
2026-04-28 17:44 58.63382 4.35224 32001 ft 461 kts 319°
2026-04-28 17:44 58.68216 4.27165 32001 ft 461 kts 319°
2026-04-28 17:45 58.73069 4.19044 32001 ft 461 kts 319°
2026-04-28 17:45 58.77888 4.10948 32001 ft 461 kts 318°
2026-04-28 17:46 58.82732 4.02781 32000 ft 461 kts 318°
2026-04-28 17:46 58.87538 3.94644 32001 ft 461 kts 318°
2026-04-28 17:47 58.92369 3.86435 32000 ft 461 kts 318°
2026-04-28 17:47 58.97200 3.78194 32001 ft 461 kts 318°
2026-04-28 17:48 59.01985 3.69998 32000 ft 461 kts 318°
2026-04-28 17:48 59.06812 3.61700 32000 ft 461 kts 318°
2026-04-28 17:49 59.11607 3.53424 32000 ft 461 kts 318°
2026-04-28 17:49 59.16394 3.45130 32000 ft 461 kts 318°
2026-04-28 17:50 59.21165 3.36830 32000 ft 461 kts 318°
2026-04-28 17:50 59.25963 3.28452 32000 ft 461 kts 317°
2026-04-28 17:51 59.30747 3.20064 32000 ft 461 kts 317°
2026-04-28 17:51 59.35509 3.11684 32000 ft 461 kts 317°
2026-04-28 17:52 59.40261 3.03286 32001 ft 461 kts 317°
2026-04-28 17:52 59.46618 2.92002 32001 ft 461 kts 317°
2026-04-28 17:53 59.52164 2.82107 32001 ft 461 kts 317°
2026-04-28 17:53 59.56128 2.75007 32001 ft 461 kts 317°
2026-04-28 17:54 59.60885 2.66456 32001 ft 461 kts 317°
2026-04-28 17:54 59.65595 2.57954 32001 ft 461 kts 317°
2026-04-28 17:55 59.70355 2.49329 32001 ft 461 kts 317°
2026-04-28 17:55 59.75061 2.40766 32000 ft 461 kts 317°
2026-04-28 17:56 59.79795 2.32118 32001 ft 461 kts 317°
2026-04-28 17:56 59.84496 2.23496 32000 ft 461 kts 317°
2026-04-28 17:57 59.89209 2.14817 32001 ft 461 kts 317°
2026-04-28 17:57 59.93922 2.06104 32000 ft 461 kts 316°
2026-04-28 17:58 59.98630 1.97362 32001 ft 461 kts 316°
2026-04-28 17:58 60.03298 1.88660 32000 ft 461 kts 316°
2026-04-28 17:59 60.07999 1.79862 32000 ft 461 kts 316°
2026-04-28 17:59 60.12689 1.71047 32000 ft 461 kts 316°
2026-04-28 18:00 60.17340 1.62270 32000 ft 461 kts 316°
2026-04-28 18:00 60.22021 1.53402 32000 ft 461 kts 316°
2026-04-28 18:01 60.26669 1.44558 32001 ft 461 kts 316°
2026-04-28 18:01 60.31335 1.35644 32001 ft 461 kts 316°
2026-04-28 18:02 60.35972 1.26748 32000 ft 461 kts 316°
2026-04-28 18:02 60.40630 1.17775 32001 ft 461 kts 316°
2026-04-28 18:03 60.45258 1.08822 32000 ft 461 kts 316°
2026-04-28 18:03 60.49904 0.99799 32001 ft 461 kts 316°
2026-04-28 18:04 60.54512 0.90811 32001 ft 461 kts 316°
2026-04-28 18:04 60.59156 0.81715 32000 ft 461 kts 315°
2026-04-28 18:05 60.62996 0.74164 32000 ft 461 kts 315°
2026-04-28 18:05 60.68360 0.63572 32000 ft 461 kts 315°
2026-04-28 18:06 60.72973 0.54423 32001 ft 461 kts 315°
2026-04-28 18:06 60.77551 0.45303 32000 ft 461 kts 315°
2026-04-28 18:07 60.82155 0.36095 32001 ft 461 kts 315°
2026-04-28 18:07 60.86712 0.26941 32000 ft 461 kts 315°
2026-04-28 18:08 60.91299 0.17694 32001 ft 461 kts 315°
2026-04-28 18:08 60.95879 0.08437 32000 ft 461 kts 315°
2026-04-28 18:09 60.99831 -0.01891 31998 ft 460 kts 299°
2026-04-28 18:09 61.02269 -0.14077 31989 ft 459 kts 288°
2026-04-28 18:10 61.04272 -0.26499 31997 ft 459 kts 288°
2026-04-28 18:10 61.06293 -0.38965 32001 ft 461 kts 288°
2026-04-28 18:11 61.08323 -0.51661 32000 ft 463 kts 288°
2026-04-28 18:11 61.10326 -0.64328 32000 ft 463 kts 288°
2026-04-28 18:12 61.12300 -0.76908 32000 ft 463 kts 288°
2026-04-28 18:12 61.14281 -0.89619 32000 ft 463 kts 287°
2026-04-28 18:13 61.16246 -1.02327 32000 ft 463 kts 287°
2026-04-28 18:13 61.18203 -1.15071 32000 ft 463 kts 287°
2026-04-28 18:14 61.20135 -1.27746 32000 ft 463 kts 287°
2026-04-28 18:14 61.22066 -1.40511 32000 ft 463 kts 287°
2026-04-28 18:15 61.23984 -1.53281 32000 ft 463 kts 287°
2026-04-28 18:15 61.25876 -1.65974 31809 ft 463 kts 287°
2026-04-28 18:16 61.26823 -1.72366 31556 ft 460 kts 287°
2026-04-28 18:16 61.27762 -1.78724 31295 ft 458 kts 287°
2026-04-28 18:16 61.28684 -1.84988 31074 ft 456 kts 287°
2026-04-28 18:16 61.29610 -1.91307 30815 ft 454 kts 287°
2026-04-28 18:17 61.30527 -1.97590 30557 ft 452 kts 287°
2026-04-28 18:17 61.31438 -2.03853 30312 ft 451 kts 286°
2026-04-28 18:17 61.32344 -2.10109 30058 ft 449 kts 286°
2026-04-28 18:17 61.33233 -2.16266 29807 ft 447 kts 286°
2026-04-28 18:18 61.34124 -2.22461 29535 ft 446 kts 286°
2026-04-28 18:18 61.35014 -2.28669 29181 ft 447 kts 286°
2026-04-28 18:18 61.35905 -2.34914 28833 ft 449 kts 286°
2026-04-28 18:18 61.36494 -2.39051 28627 ft 447 kts 286°
2026-04-28 18:19 61.37659 -2.47263 28227 ft 443 kts 286°
2026-04-28 18:19 61.38528 -2.53418 27927 ft 441 kts 286°
2026-04-28 18:19 61.39390 -2.59550 27626 ft 439 kts 286°
2026-04-28 18:19 61.40237 -2.65596 27330 ft 437 kts 286°
2026-04-28 18:20 61.41088 -2.71694 27028 ft 435 kts 286°
2026-04-28 18:20 61.41931 -2.77755 26723 ft 433 kts 286°
2026-04-28 18:20 61.42767 -2.83789 26412 ft 431 kts 285°
2026-04-28 18:20 61.43586 -2.89726 26131 ft 429 kts 285°
2026-04-28 18:21 61.44412 -2.95727 25832 ft 427 kts 285°
2026-04-28 18:21 61.45227 -3.01678 25528 ft 425 kts 285°
2026-04-28 18:21 61.46039 -3.07624 25230 ft 423 kts 285°
2026-04-28 18:21 61.46842 -3.13528 24928 ft 421 kts 285°
2026-04-28 18:22 61.47639 -3.19410 24626 ft 419 kts 285°
2026-04-28 18:22 61.48419 -3.25188 24331 ft 417 kts 285°
2026-04-28 18:22 61.49204 -3.31027 24032 ft 415 kts 285°
2026-04-28 18:22 61.49983 -3.36838 23733 ft 413 kts 285°
2026-04-28 18:23 61.50757 -3.42632 23429 ft 411 kts 285°
2026-04-28 18:23 61.51524 -3.48401 23131 ft 409 kts 285°
2026-04-28 18:23 61.52283 -3.54125 22830 ft 407 kts 285°
2026-04-28 18:23 61.53029 -3.59774 22530 ft 406 kts 285°
2026-04-28 18:24 61.53779 -3.65523 22683 ft 399 kts 287°
2026-04-28 18:24 61.54257 -3.69231 22469 ft 391 kts 288°
2026-04-28 18:24 61.55186 -3.76390 22049 ft 376 kts 288°
2026-04-28 18:24 61.55866 -3.81614 21731 ft 365 kts 288°
2026-04-28 18:25 61.56526 -3.86688 21427 ft 364 kts 288°
2026-04-28 18:25 61.57198 -3.91855 21120 ft 366 kts 288°
2026-04-28 18:25 61.57864 -3.97010 20816 ft 364 kts 288°
2026-04-28 18:26 61.59178 -4.07240 20223 ft 361 kts 288°
2026-04-28 18:26 61.59818 -4.12251 19934 ft 360 kts 288°
2026-04-28 18:26 61.60467 -4.17343 19638 ft 358 kts 288°
2026-04-28 18:26 61.61111 -4.22414 19350 ft 357 kts 287°
2026-04-28 18:27 61.61748 -4.27450 19084 ft 355 kts 287°
2026-04-28 18:27 61.62374 -4.32409 18849 ft 354 kts 287°
2026-04-28 18:27 61.63006 -4.37433 18600 ft 354 kts 287°
2026-04-28 18:27 61.63633 -4.42436 18329 ft 353 kts 287°
2026-04-28 18:28 61.64255 -4.47417 18058 ft 351 kts 287°
2026-04-28 18:28 61.64873 -4.52388 17796 ft 350 kts 287°
2026-04-28 18:28 61.65488 -4.57345 17526 ft 349 kts 287°
2026-04-28 18:28 61.66100 -4.62295 17263 ft 348 kts 287°
2026-04-28 18:29 61.66700 -4.67161 17003 ft 346 kts 287°
2026-04-28 18:29 61.67302 -4.72066 16744 ft 345 kts 287°
2026-04-28 18:29 61.67902 -4.76970 16488 ft 344 kts 287°
2026-04-28 18:29 61.68489 -4.81779 16237 ft 343 kts 287°
2026-04-28 18:30 61.69082 -4.86660 15981 ft 342 kts 286°
2026-04-28 18:30 61.69281 -4.88297 15900 ft 341 kts 286°
2026-04-28 18:30 61.70255 -4.96360 15488 ft 340 kts 286°
2026-04-28 18:30 61.70836 -5.01183 15236 ft 334 kts 286°
2026-04-28 18:31 61.71390 -5.05814 14996 ft 325 kts 286°
2026-04-28 18:31 61.71939 -5.10413 14753 ft 322 kts 286°
2026-04-28 18:31 61.72489 -5.15014 14515 ft 324 kts 286°
2026-04-28 18:31 61.73037 -5.19627 14276 ft 322 kts 285°
2026-04-28 18:32 61.73576 -5.24182 14010 ft 315 kts 285°
2026-04-28 18:32 61.74093 -5.28567 13743 ft 306 kts 285°
2026-04-28 18:32 61.74603 -5.32898 13481 ft 306 kts 285°
2026-04-28 18:32 61.75120 -5.37299 13217 ft 307 kts 285°
2026-04-28 18:33 61.75631 -5.41661 12948 ft 305 kts 285°
2026-04-28 18:33 61.76136 -5.45993 12682 ft 303 kts 285°
2026-04-28 18:33 61.76633 -5.50267 12433 ft 303 kts 285°
2026-04-28 18:33 61.77133 -5.54574 12182 ft 302 kts 284°
2026-04-28 18:34 61.77631 -5.58885 11924 ft 301 kts 284°
2026-04-28 18:34 61.78126 -5.63180 11674 ft 300 kts 284°
2026-04-28 18:34 61.78619 -5.67475 11421 ft 299 kts 284°
2026-04-28 18:34 61.79108 -5.71747 11170 ft 299 kts 284°
2026-04-28 18:35 61.79590 -5.75970 10928 ft 298 kts 284°
2026-04-28 18:35 61.80076 -5.80240 10685 ft 297 kts 284°
2026-04-28 18:35 61.80558 -5.84496 10435 ft 296 kts 284°
2026-04-28 18:35 61.81031 -5.88678 10186 ft 295 kts 284°
2026-04-28 18:36 61.81507 -5.92900 9929 ft 294 kts 284°
2026-04-28 18:36 61.81980 -5.97103 9661 ft 293 kts 284°
2026-04-28 18:36 61.82450 -6.01302 9395 ft 292 kts 283°
2026-04-28 18:36 61.82916 -6.05477 9127 ft 291 kts 283°
2026-04-28 18:37 61.83379 -6.09631 8871 ft 290 kts 283°
2026-04-28 18:37 61.83840 -6.13782 8614 ft 289 kts 283°
2026-04-28 18:37 61.84299 -6.17927 8353 ft 288 kts 283°
2026-04-28 18:37 61.84749 -6.22003 8105 ft 287 kts 283°
2026-04-28 18:38 61.85200 -6.26101 7852 ft 285 kts 283°
2026-04-28 18:38 61.85651 -6.30202 7605 ft 285 kts 283°
2026-04-28 18:38 61.86097 -6.34263 7353 ft 281 kts 283°
2026-04-28 18:38 61.86394 -6.36974 7182 ft 277 kts 283°
2026-04-28 18:39 61.86824 -6.40900 6926 ft 270 kts 283°
2026-04-28 18:39 61.87240 -6.44711 6559 ft 267 kts 283°
2026-04-28 18:39 61.87655 -6.48552 6172 ft 266 kts 282°
2026-04-28 18:39 61.88119 -6.52334 5761 ft 265 kts 288°
2026-04-28 18:40 61.88810 -6.55962 5330 ft 265 kts 294°
2026-04-28 18:40 61.89609 -6.59418 4983 ft 263 kts 295°
2026-04-28 18:40 61.90432 -6.62837 4728 ft 256 kts 295°
2026-04-28 18:40 61.91239 -6.66159 4460 ft 250 kts 295°
2026-04-28 18:41 61.92028 -6.69400 4260 ft 242 kts 295°
2026-04-28 18:41 61.92290 -6.70474 4218 ft 239 kts 295°
2026-04-28 18:41 61.93025 -6.73488 4091 ft 229 kts 295°
2026-04-28 18:42 61.93732 -6.76384 3987 ft 216 kts 295°
2026-04-28 18:42 61.94399 -6.79114 3987 ft 200 kts 294°
2026-04-28 18:42 61.95027 -6.81684 3988 ft 191 kts 294°
2026-04-28 18:42 61.95611 -6.84068 4000 ft 175 kts 294°
2026-04-28 18:43 61.96178 -6.86395 3995 ft 178 kts 294°
2026-04-28 18:43 61.96747 -6.88718 3990 ft 173 kts 294°
2026-04-28 18:43 61.97288 -6.90922 3991 ft 166 kts 294°
2026-04-28 18:43 61.97825 -6.93113 3995 ft 167 kts 294°
2026-04-28 18:44 61.98356 -6.95277 3987 ft 167 kts 294°
2026-04-28 18:44 61.99435 -6.99667 3547 ft 166 kts 293°
2026-04-28 18:44 61.99971 -7.01846 3282 ft 166 kts 293°
2026-04-28 18:45 62.00506 -7.04022 3017 ft 165 kts 293°
2026-04-28 18:45 62.01035 -7.06171 2754 ft 163 kts 293°
2026-04-28 18:45 62.01561 -7.08308 2490 ft 162 kts 294°
2026-04-28 18:45 62.02084 -7.10425 2235 ft 161 kts 294°
2026-04-28 18:46 62.02609 -7.12557 1971 ft 163 kts 294°
2026-04-28 18:46 62.03134 -7.14678 1710 ft 161 kts 294°
2026-04-28 18:46 62.03650 -7.16761 1452 ft 154 kts 294°
2026-04-28 18:46 62.04141 -7.18755 1202 ft 150 kts 294°
2026-04-28 18:47 62.04614 -7.20668 931 ft 142 kts 294°
2026-04-28 18:47 62.05074 -7.22527 698 ft 142 kts 294°
2026-04-28 18:47 62.05534 -7.24383 470 ft 140 kts 294°
2026-04-28 18:47 62.05984 -7.26201 254 ft 137 kts 292°
2026-04-28 18:48 62.06322 -7.27605 286 ft 71 kts 297°
2026-04-28 18:48 62.06457 -7.28097 280 ft 14 kts 301°
2026-04-28 18:48 62.06537 -7.28121 278 ft 9 kts 19°
2026-04-28 18:48 62.06556 -7.28106 280 ft 3 kts 21°
2026-04-28 18:49 62.06595 -7.28091 278 ft 7 kts
2026-04-28 18:49 62.06630 -7.28093 278 ft 8 kts 356°
2026-04-28 18:49 62.06689 -7.28084 283 ft 4 kts 24°
2026-04-28 18:49 62.06708 -7.28052 278 ft 0 kts 74°
2026-04-28 18:50 62.06710 -7.28040 278 ft 0 kts 76°